Вернуться в каталог

SL-12 DEB

АктивенHEO
NORAD 25684·DEBRIS·🇷🇺 Russia

Запущен Dec 24, 1985 с Baikonur Cosmodrome

Loading…

Ближайшие Пролёты (ближайшие 24 часа)

TLE

СвежийSource: Space-Track

Эпоха: Sep 12, 2026, 22:47 UTC

1 25684U 85118X   26255.94944242  .00007460  00000-0  65721-2 0  9996
2 25684  64.6726 246.1486 5221609  28.4924 352.1562  5.10913539505755

Отслеживайте SL-12 DEB в реальном времени с AllMySat

Download on the App Store